Rolla, MO

8:28 AM CDT on March 27, 2017 (GMT -0500)
Rolla National

Weather History for KVIH - February, 2012

Change the Weather History Date:

Saturday, February 4, 2012

  Actual Average Record
Temperature  
Mean Temperature 45 °F 33 °F  
Max Temperature 49 °F 43 °F 78 °F (1962)
Min Temperature 41 °F 23 °F -9 °F (1996)
Degree Days  
Heating Degree Days 20 32  
Month to date heating degree days 74 129  
Since 1 July heating degree days 2590 3097  
Cooling Degree Days 0 0  
Month to date cooling degree days 0 0  
Year to date cooling degree days 0 0  
Moisture  
Dew Point 44 °F    
Average Humidity 93    
Maximum Humidity 100    
Minimum Humidity 86    
Precipitation  
Precipitation 0.08 in 0.07 in 0.30 in (1960)
Month to date precipitation 1.07 0.26  
Year to date precipitation 2.20 2.43  
Sea Level Pressure  
Sea Level Pressure 30.03 in    
Wind  
Wind Speed 8 mph (WSW)    
Max Wind Speed 30 mph    
Max Gust Speed 37 mph    
Visibility 5 miles    
Events Fog , Rain    
T = Trace of Precipitation, MM = Missing Value Source: NWS Daily Summary

Daily Weather History Graph

Daily Weather History Graph

Search for Another Location

Airport or City:

Trip Planner

Search our weather history database for the weather conditions in past years. The results will help you decide how hot, cold, wet, or windy it might be!

Date:

Astronomy

Feb. 04, 2012 Rise Set
Actual Time 7:09 AM CST 5:32 PM CST
Civil Twilight 6:41 AM CST 6:00 PM CST
Nautical Twilight 6:10 AM CST 6:31 PM CST
Astronomical Twilight 5:39 AM CST 7:02 PM CST
Moon 2:32 PM CST (2/4) 4:33 AM CST (2/4)
Length of Visible Light 11h 18m
Length of Day
10h 23m
Waxing Gibbous, 89% of the Moon is Illuminated
Feb 4
Waxing Gibbous
Feb 7
Full
Feb 14
Last Quarter
Feb 21
New
Feb 29
First Quarter

Hourly Weather History & Observations

Time (CST) Temp. Windchill Dew Point Humidity Pressure Visibility Wind Dir Wind Speed Gust Speed Precip Events Conditions
12:03 AM 44.6 °F 35.7 °F 42.8 °F 93% 29.97 in 4.0 mi ESE 24.2 mph 33.4 mph 0.02 in Rain Heavy Rain
12:12 AM 44.6 °F 34.7 °F 42.8 °F 93% 29.94 in 4.0 mi ESE 29.9 mph 36.8 mph 0.05 in Rain Heavy Rain
12:27 AM 44.6 °F 36.1 °F 44.6 °F 100% 29.94 in 8.0 mi ESE 21.9 mph 33.4 mph 0.07 in Rain Light Rain
12:53 AM 45.0 °F 37.4 °F 44.1 °F 97% 29.94 in 10.0 mi ESE 18.4 mph 25.3 mph 0.08 in Rain Light Rain
1:53 AM 46.0 °F 41.4 °F 45.0 °F 96% 29.93 in 10.0 mi East 9.2 mph - 0.00 in   Overcast
2:53 AM 46.9 °F - 46.0 °F 97% 29.95 in 10.0 mi Calm Calm - N/A   Overcast
3:53 AM 46.0 °F 44.8 °F 45.0 °F 96% 29.96 in 10.0 mi East 3.5 mph - N/A   Overcast
4:06 AM 46.4 °F 44.3 °F 44.6 °F 93% 29.95 in 10.0 mi ENE 4.6 mph - N/A   Overcast
4:53 AM 46.0 °F 43.1 °F 45.0 °F 96% 29.97 in 10.0 mi East 5.8 mph - N/A   Overcast
5:53 AM 46.0 °F 43.9 °F 46.0 °F 100% 29.98 in 3.0 mi ENE 4.6 mph - N/A   Overcast
6:09 AM 46.4 °F 44.3 °F 44.6 °F 93% 29.97 in 6.0 mi East 4.6 mph - N/A   Overcast
6:39 AM 46.4 °F 43.5 °F 44.6 °F 93% 29.97 in 1.8 mi East 5.8 mph - N/A   Overcast
6:53 AM 46.0 °F 42.5 °F 45.0 °F 96% 29.98 in 0.8 mi East 6.9 mph - N/A   Mist
7:21 AM 46.4 °F - 44.6 °F 93% 29.97 in 1.2 mi Calm Calm - N/A   Overcast
7:31 AM 46.4 °F 43.5 °F 44.6 °F 93% 29.98 in 0.5 mi ESE 5.8 mph - N/A Fog Fog
7:53 AM 46.0 °F 43.9 °F 45.0 °F 96% 29.99 in 0.5 mi East 4.6 mph - N/A Fog Fog
8:00 AM 46.4 °F 44.3 °F 44.6 °F 93% 29.98 in 0.8 mi ESE 4.6 mph - N/A   Mist
8:19 AM 46.4 °F 44.3 °F 46.4 °F 100% 29.98 in 0.5 mi ESE 4.6 mph - N/A Fog Fog
8:43 AM 46.4 °F - 46.4 °F 100% 30.00 in 1.0 mi Calm Calm - N/A   Mist
8:53 AM 46.9 °F - 46.9 °F 100% 30.00 in 1.0 mi Calm Calm - N/A   Overcast
9:06 AM 46.4 °F - 46.4 °F 100% 29.99 in 2.5 mi Calm Calm - N/A   Overcast
9:32 AM 48.2 °F - 48.2 °F 100% 30.00 in 3.0 mi West 8.1 mph - N/A   Overcast
9:49 AM 48.2 °F - 48.2 °F 100% 30.01 in 2.5 mi West 11.5 mph - N/A   Overcast
9:53 AM 48.9 °F - 48.0 °F 97% 30.01 in 2.5 mi West 8.1 mph - N/A   Overcast
10:10 AM 48.2 °F - 48.2 °F 100% 30.01 in 1.5 mi West 10.4 mph 17.3 mph N/A   Overcast
10:22 AM 48.2 °F - 46.4 °F 93% 30.01 in 2.5 mi West 12.7 mph - N/A   Overcast
10:53 AM 46.9 °F - 46.0 °F 97% 30.04 in 2.0 mi West 15.0 mph - N/A   Overcast
11:12 AM 46.4 °F 41.1 °F 46.4 °F 100% 30.03 in 6.0 mi West 11.5 mph - N/A   Overcast
11:39 AM 46.4 °F 40.4 °F 44.6 °F 93% 30.03 in 9.0 mi West 13.8 mph - N/A   Overcast
11:53 AM 46.0 °F 41.0 °F 44.1 °F 93% 30.04 in 10.0 mi WSW 10.4 mph - N/A   Overcast
12:53 PM 46.0 °F 40.2 °F 43.0 °F 89% 30.03 in 10.0 mi West 12.7 mph - N/A   Overcast
1:53 PM 45.0 °F 39.7 °F 44.1 °F 97% 30.03 in 5.0 mi West 10.4 mph - N/A   Overcast
2:49 PM 44.6 °F 39.7 °F 44.6 °F 100% 30.04 in 3.0 mi WSW 9.2 mph - 0.01 in Rain Light Rain
2:53 PM 45.0 °F 40.6 °F 44.1 °F 97% 30.05 in 4.0 mi WSW 8.1 mph - 0.01 in Rain Light Rain
3:12 PM 44.6 °F 41.4 °F 44.6 °F 100% 30.04 in 5.0 mi WSW 5.8 mph - 0.00 in   Overcast
3:20 PM 44.6 °F 41.4 °F 44.6 °F 100% 30.04 in 5.0 mi WSW 5.8 mph - 0.00 in   Overcast
3:38 PM 44.6 °F 40.7 °F 44.6 °F 100% 30.04 in 9.0 mi SW 6.9 mph - 0.00 in   Overcast
3:53 PM 45.0 °F 40.6 °F 44.1 °F 97% 30.06 in 10.0 mi WSW 8.1 mph - 0.00 in   Overcast
4:53 PM 45.0 °F 42.6 °F 43.0 °F 93% 30.06 in 10.0 mi SW 4.6 mph - N/A   Overcast
5:26 PM 44.6 °F 41.4 °F 42.8 °F 93% 30.06 in 10.0 mi SW 5.8 mph - N/A   Overcast
5:53 PM 44.1 °F 40.8 °F 43.0 °F 96% 30.07 in 10.0 mi SW 5.8 mph - N/A   Overcast
6:53 PM 45.0 °F 41.2 °F 43.0 °F 93% 30.09 in 10.0 mi West 6.9 mph - N/A   Overcast
7:09 PM 44.6 °F 40.7 °F 42.8 °F 93% 30.08 in 10.0 mi West 6.9 mph - N/A   Overcast
7:32 PM 44.6 °F 40.2 °F 42.8 °F 93% 30.09 in 9.0 mi West 8.1 mph - N/A   Overcast
7:48 PM 44.6 °F 40.2 °F 42.8 °F 93% 30.09 in 9.0 mi West 8.1 mph - N/A   Overcast
7:53 PM 44.1 °F 39.5 °F 43.0 °F 96% 30.10 in 8.0 mi West 8.1 mph - N/A   Overcast
7:58 PM 44.6 °F 40.7 °F 42.8 °F 93% 30.09 in 8.0 mi West 6.9 mph - N/A   Overcast
8:27 PM 44.6 °F 40.2 °F 42.8 °F 93% 30.10 in 10.0 mi WNW 8.1 mph - N/A   Overcast
8:53 PM 43.0 °F 37.2 °F 41.0 °F 93% 30.11 in 9.0 mi WNW 10.4 mph - N/A   Overcast
9:53 PM 42.1 °F 37.1 °F 41.0 °F 96% 30.11 in 3.0 mi West 8.1 mph - N/A   Overcast
10:32 PM 42.8 °F 37.0 °F 41.0 °F 93% 30.11 in 2.5 mi West 10.4 mph - N/A   Overcast
10:40 PM 42.8 °F 36.2 °F 41.0 °F 93% 30.11 in 2.5 mi West 12.7 mph - N/A   Overcast
10:53 PM 42.1 °F 36.1 °F 41.0 °F 96% 30.12 in 2.5 mi West 10.4 mph - N/A   Overcast
11:37 PM 41.0 °F 35.2 °F 41.0 °F 100% 30.11 in 1.8 mi WNW 9.2 mph - N/A   Overcast
11:51 PM 41.0 °F 36.4 °F 39.2 °F 93% 30.11 in 2.0 mi NW 6.9 mph - 0.00 in   Overcast
11:53 PM 41.0 °F 36.4 °F 39.9 °F 96% 30.13 in 2.0 mi NW 6.9 mph - 0.00 in   Overcast